Regional Weather Roundup
Issued by NWS Albany, NY

Home | Current Version | Previous Version | Graphics & Text | Print | Product List | Glossary Off
Versions: 1 2 3 4 5 6 7 8 9 10 11 12 13 14 15 16 17 18 19 20 21 22 23 24 25 26 27 28 29 30 31 32 33 34 35 36 37 38 39 40 41 42 43 44 45 46 47 48 49 50

000
ASUS41 KALY 240910
RWRALY

NEW YORK STATE HOURLY WEATHER ROUNDUP
NATIONAL WEATHER SERVICE ALBANY NY
400 AM EST SAT FEB 24 2018

NOTE: "FAIR" INDICATES FEW OR NO CLOUDS BELOW 12,000 FEET WITH NO
SIGNIFICANT WEATHER AND/OR NO OBSTRUCTIONS TO VISIBILITY.

NYZ032-033-038>043-046>054-057>066-NYZ062>081-082-084-241000-
EAST


CITY           SKY/WX    TMP DP  RH WIND       PRES   REMARKS
ALBANY         CLOUDY    37  34  89 S5        30.13R WCI  33
GLENS FALLS    CLOUDY    35  35 100 SW6       30.09R FOG     WCI  30
POUGHKEEPSIE   FAIR      41  37  86 SW7       30.11S
NEWBURGH       CLOUDY    39  39 100 W7        30.13S WCI  34
MONTGOMERY     MOCLDY    38  37  97 S3        30.11S
WHITE PLAINS   FAIR      41  39  93 W6        30.10F
ISLIP          FAIR      41  41 100 W6        30.12F FOG
NEW YORK CITY  MOCLDY    45  41  86 W9        30.13F
CENTRAL PARK   CLOUDY    44  41  89 MISG      30.16F
$$

NYZ005>009-017-018-044>046-055-056-241000-
CENTRAL


CITY           SKY/WX    TMP DP  RH WIND       PRES   REMARKS
FULTON         CLOUDY    42  37  82 W7        30.16R
SYRACUSE       CLOUDY    41  39  93 W7        30.15S
ROME           CLOUDY    40  39  97 NW7       30.15R
ELMIRA         MOCLDY    37  36  96 SW5       30.15S WCI  33
BINGHAMTON     FOG       39  39 100 NW5       30.13R VSB 1/4
MONTICELLO     LGT RAIN  33  33 100 NW8       30.11F VSB 1/4 WCI  26
$$

NYZ026>034-041>043-087-241000-
NORTH


CITY           SKY/WX    TMP DP  RH WIND       PRES   REMARKS
WATERTOWN      CLOUDY    38  36  92 SW7       30.13S WCI  33
FORT DRUM      NOT AVBL
OGDENSBURG     MOCLDY    39  37  94 SW8       30.09S WCI  33
MASSENA        CLOUDY    40  38  93 SW9       30.08R WCI  34
SARANAC LAKE   LGT SNOW  33  33 100 W3        30.02S FOG
PLATTSBURGH    CLOUDY    44  33  65 W6        30.04R
$$

NYZ001>004-010>016-019>021-085-241000-
WEST


CITY           SKY/WX    TMP DP  RH WIND       PRES   REMARKS
NIAGARA FALLS  CLOUDY    42  34  73 W9        30.20R
BUFFALO        CLOUDY    40  36  86 W9        30.20R WCI  34
DUNKIRK        CLOUDY    38  37  97 W6        30.22R WCI  33
JAMESTOWN        N/A    N/A N/A N/A MISG        N/A
WELLSVILLE     CLOUDY    43  39  86 NW9       30.15S
ROCHESTER      CLOUDY    44  39  82 NW13      30.18R
PENN YAN       CLOUDY    46  37  71 W5        30.15R
$$

             KEY
       WCI = WIND CHILL INDEX
       VSB = VISIBILITY
       HX  = HEAT INDEX
$$



USA.gov is the U.S. government's official web portal to all federal, state and local government web resources and services.